Location: Osnabrueck
(52.2800°N, 7.9700°E)
Time: 21:54:10
(UTC+02:00)

Envisat - Visible Passes

Search period start: 25 August 2019 00:00
Search period end: 04 September 2019 00:00
Orbit: 764 x 766 km, 98.1° (Epoch: 25 August)

Date Brightness Start Highest point End Pass type
(mag) Time Alt. Az. Time Alt. Az. Time Alt. Az.
27 Aug 6.1 21:20:24 10° WSW 21:22:35 13° W 21:24:46 10° WNW visible
30 Aug 6.0 21:08:10 10° WSW 21:11:10 16° W 21:14:10 10° NW visible
02 Sep 5.8 20:56:12 10° SW 20:59:45 19° W 21:03:20 10° NW visible
